FENGYUN 1C DEB, 31051

Orbit data source: Space-Track

FENGYUN 1C DEB, 31051 is space debris in SSO originally from a launch on Mon, 10 May 1999 UTC launched from the Taiyaun Space Center, China (TSC). Fengyun 1C debris stems from the Chinese weather satellite Fengyun-1C, which was intentionally destroyed by a Chinese anti-satellite missile in 2007. This event dramatically increased the amount of space debris, with thousands of trackable fragments posing hazards to satellites and human spaceflight. The Fengyun 1C debris cloud has become a focal point in discussions about space sustainability and the need for international regulations to prevent the creation of new debris.

Loading next visibility...
Identifier
31051, 1999-025BEV
Orbit
SSO
Country
Flag of CNCN / PRC
Related business
Manufacturer
Unknown
Mission
Spacecraft
Bus & Motor
Unknown
Mass
Unknown
Launch date (UTC)
1999-05-10 (27 years ago)
Launch vehicle
Unknown
Launch site
Taiyaun Space Center, China (TSC)
Object type
Payload
Rocket body
Debris
Shape & HBR
Unknown shape, 0.1 m
Radar Cross Section
Small (<0.1 m²)

Expand to show TLE details & history
Last TLE update: 1 day ago

TLE from 1 day ago
0 FENGYUN 1C DEB
1 31051U 99025BEV 26132.30197241  .00000499  00000-0  34355-3 0  9991
2 31051  98.7979 163.0513 0052771  77.1027 283.6027 14.03153413659302
Epoch: 2026-05-12T07:14Z
TLE epoch observation values (Epoch: 2026-05-12T07:14:50.416Z)
Latitude
-0.00004°
Longitude
-175.73706°
Altitude
876.962 km
Speed
7.418 km/s
True Right ascension
10h 52m 12s
True Declination
0° 00' 00"
Sunlit
Object was in daylight at epoch
Visualization orbit readout
Latitude
Unknown
Longitude
Unknown
Altitude
Unknown
Speed
Unknown
Apparent Right ascension
Unknown
Apparent Declination
Unknown
Sunlit
N/A
Visualization observer readout
Local Sidereal Time
02:41:55
Azimuth
Unknown
Elevation
Unknown
Doppler factor
Unknown
Orbital elements
Apogee altitude
918.383 km
Perigee altitude
841.779 km
Semi-major axis
7,258.218 km
Eccentricity
0.00528
Inclination
98.7979°
RAAN
163.0513°
Arg. of periapsis
77.1027°
True anomaly
283.01405°
Mean anomaly
283.6027°
Eccentric anomaly
283.30846°
Mean motion
3.50993 °/min
Orbital period
102.57 mins
BSTAR
0.00034355
Loading maneuver chart data...
Computing Atmospheric mass density...

Documentation

Showing up to 5 results
|